Satellite-Ground Cal/Val Site Overpasses Predictions

Prediction of Satellite NPP Overpassing Cal/Val Site: Antarctic Dome C

Ground Cal/Val Site Location: Latitude: -75.10, Longitude: 123.35; Satellite-Ground Site NADIR distance within 100 km.

Table of predicted overpasses for the next 14.0 days since TLE Epoch: 10/20/2024
Interval Starting Time Ending Time Minimum Distance Time Minimum Distance (km)
1 10/20/2024 15:00:37 10/20/2024 15:01:01 10/20/2024 15:00:49 56.44
2 10/21/2024 14:41:48 10/21/2024 14:42:13 10/21/2024 14:42:00 52.57
3 10/22/2024 07:43:29 10/22/2024 07:43:50 10/22/2024 07:43:40 68.81
4 10/23/2024 07:24:37 10/23/2024 07:25:04 10/23/2024 07:24:51 39.19
5 10/25/2024 15:07:04 10/25/2024 15:07:13 10/25/2024 15:07:09 94.41
6 10/26/2024 14:48:05 10/26/2024 14:48:34 10/26/2024 14:48:20 16.75
7 10/28/2024 07:30:55 10/28/2024 07:31:24 10/28/2024 07:31:10 2.97
8 10/31/2024 14:54:22 10/31/2024 14:54:51 10/31/2024 14:54:37 19.88
9 11/01/2024 14:35:41 11/01/2024 14:35:55 11/01/2024 14:35:48 87.07
